{"data":{"norad_id":48289,"intl_designator":"2021-036P","name":"STARLINK-2545","alt_names":[],"object_type":"PAYLOAD","status":"ACTIVE","operator":null,"country":"US","launch_date":"2021-04-29","launch_site_code":"AFETR","launch_vehicle":null,"mission":null,"orbit_class":"UNKNOWN","rcs_meters":null,"size_class":null,"mass_kg":null,"dimensions":null,"purposes":["comms"],"wikipedia_slug":null,"has_3d_model":false,"image_url":null,"decayed_at":null,"tle_current":{"epoch":"2026-05-25T05:00:28.008000Z","epoch_age_seconds":67335,"freshness":"FRESH","line1":"1 48289U 21036P   26145.20865750  .00000180  00000+0  17566-4 0  9991","line2":"2 48289  53.1601  79.7924 0001494  73.0360 287.0805 15.31689738280128","mean_motion":15.31689738,"eccentricity":0.0001494,"inclination_deg":53.1601,"raan_deg":79.7924,"arg_perigee_deg":73.036,"mean_anomaly_deg":287.0805,"bstar":1.7566e-5,"rev_number":28012,"period_min":94.013817829731,"perigee_km":469.74735909112,"apogee_km":471.79381267778,"semimajor_km":6848.9075858844,"source":"CELESTRAK","updated_at":"2026-05-25T13:38:16.674212Z"}}}